Regional Weather Roundup
Issued by NWS

Home | Current Version | Previous Version | Graphics & Text | Print | Product List | Glossary On
Versions: 1 2 3 4 5 6 7 8 9 10 11 12 13 14 15 16 17 18 19 20 21 22 23 24 25 26 27 28 29 30 31 32 33 34 35 36 37 38 39 40 41 42 43 44 45 46 47 48 49 50
094
ASUS45 KCYS 231710
RWRWY

WYOMING REGIONAL WEATHER ROUNDUP
NATIONAL WEATHER SERVICE CHEYENNE WY
1100 AM MDT MON OCT 23 2017

NOTE:  "FAIR" INDICATES FEW OR NO CLOUDS BELOW 12,000 FEET
WITH NO SIGNIFICANT WEATHER AND/OR OBSTRUCTIONS TO VISIBILITY.

WYZ001-231800-
YELLOWSTONE NATIONAL PARK

CITY           SKY/WX    TMP DP  RH WIND       PRES   REMARKS
LK YELLOWSTONE   N/A     35  20  54 VRB7G20   30.59R WCI  29
W YELLOWSTONE  NOT AVBL

$$
WYZ002>013-054>058-071-098>099-231800-
NORTHERN WYOMING

CITY           SKY/WX    TMP DP  RH WIND       PRES   REMARKS
JACKSON        FAIR      44  20  38 CALM      30.58R
CODY           FAIR      51  15  23 NW18G29   30.49R
GREYBULL       FAIR      54  20  26 NW23      30.46R
WORLAND        FAIR      50  22  33 NW7       30.48R
SHERIDAN       FAIR      50  24  36 NW30G39   30.44R
BUFFALO        PTSUNNY   48  20  32 N29G41    30.43R
GILLETTE       FAIR      50  21  32 NW32G39   30.40R
HULETT         FAIR      50  23  34 NW12G23   30.37R
NEWCASTLE      FAIR      46  21  36 NW24G32   30.37S

$$
WYZ014>020-022>026-101>103-231800-
CENTRAL WYOMING

CITY           SKY/WX    TMP DP  RH WIND       PRES   REMARKS
BIG PINEY      FAIR      48  25  40 N14       30.54R
PINEDALE       FAIR      43  21  42 NW20G29   30.54R
DUBOIS         FAIR      41  21  45 NW18G25   30.53R
LANDER         FAIR      49  26  41 N7        30.47S
RIVERTON       FAIR      48  28  46 E9        30.48R
CASPER         FAIR      49  17  28 NW18G24   30.46R
DOUGLAS        FAIR      50  20  30 NW20G32   30.45R

$$
WYZ021-027>030-104>119-231800-
SOUTHERN WYOMING

CITY           SKY/WX    TMP DP  RH WIND       PRES   REMARKS
EVANSTON       FAIR      49  27  42 W17       30.59R
KEMMERER       FAIR      45  28  53 NW14G20   30.58R
FORT BRIDGER   FAIR      51  27  40 W23G29    30.59S
ROCK SPRINGS   FAIR      49  27  42 W16G23    30.53R
DIXON          CLOUDY    52  31  44 W14G21    30.54S
RAWLINS        FAIR      48  24  39 VRB6      30.50R
SARATOGA       PTSUNNY   46  28  49 W21G28    30.50S
LARAMIE        CLOUDY    41  21  44 N10       30.45R
CHEYENNE       PTSUNNY   43  21  41 N28G39    30.40F
TORRINGTON     FAIR      52  17  25 NW25G38   30.38S
PINE BLUFFS    CLOUDY    43  27  52 N21G31    30.42R

$$




USA.gov is the U.S. government's official web portal to all federal, state and local government web resources and services.